Location: Goathead Hill Observatory
(46.4083°N, 105.8406°W)
Time: 10:04:30
(UTC-07:00)

ISS - Visible Passes

Search period start: 18 February 2019 00:00
Search period end: 28 February 2019 00:00
Orbit: 403 x 411 km, 51.6° (Epoch: 19 February)

Date Brightness Start Highest point End Pass type
(mag) Time Alt. Az. Time Alt. Az. Time Alt. Az.
21 Feb -0.8 06:24:07 10° S 06:26:01 15° SE 06:27:56 10° E visible
23 Feb -2.0 06:16:20 10° SSW 06:19:16 31° SE 06:22:13 10° ENE visible
24 Feb -1.2 05:25:34 10° S 05:27:56 19° SE 05:30:17 10° E visible
25 Feb -0.8 04:35:47 10° SSE 04:36:37 11° SE 04:37:28 10° ESE visible
25 Feb -3.5 06:09:22 10° SW 06:12:36 66° SSE 06:15:52 10° ENE visible
26 Feb -2.7 05:19:16 20° SSW 05:21:08 39° SE 05:24:13 10° ENE visible
27 Feb -1.7 04:30:04 23° SE 04:30:04 23° SE 04:32:23 10° E visible
27 Feb -3.7 06:02:47 10° WSW 06:06:01 65° NNW 06:09:17 10° ENE visible
